• In Moldova, Republic
  • List of Countries
  • For 7 days
  • Water Temperature
  • Satellite Maps
  • Weather Map
  • Weather Widgets
  • user-avatar
    Login

    Hourly Weather Ischgl

    Today, 18 November, Saturday

    Time Temperature Precipitation Wind Pressure Humidity
    00:00 -10°C° 0 mm 1 mps 571 mmHg 91%
    01:00 -11°C° 0 mm 1 mps 570 mmHg 92%
    02:00 -11°C° 0 mm 1 mps 570 mmHg 91%
    03:00 -11°C° 0 mm 1 mps 570 mmHg 91%
    04:00 -11°C° 0 mm 1 mps 570 mmHg 91%
    05:00 -11°C° 0 mm 1 mps 570 mmHg 91%
    06:00 -11°C° 0 mm 1 mps 570 mmHg 92%
    07:00 -11°C° 0 mm 1 mps 570 mmHg 92%
    08:00 -9°C° 0 mm 1 mps 571 mmHg 89%
    09:00 -8°C° 0 mm 1 mps 571 mmHg 86%
    10:00 -6°C° 0 mm 1 mps 572 mmHg 82%
    11:00 -4°C° 0 mm 1 mps 572 mmHg 80%
    12:00 -3°C° 0 mm 1 mps 573 mmHg 77%
    13:00 -4°C° 0 mm 2 mps 573 mmHg 74%
    14:00 -6°C° 0 mm 2 mps 572 mmHg 78%
    15:00 -6°C° 0 mm 1 mps 571 mmHg 83%
    16:00 -7°C° 0 mm 1 mps 570 mmHg 88%
    17:00 -10°C° 0 mm 2 mps 570 mmHg 87%
    18:00 -12°C° 0 mm 2 mps 570 mmHg 86%
    19:00 -13°C° 0 mm 2 mps 569 mmHg 85%
    20:00 -13°C° 0 mm 2 mps 569 mmHg 81%
    21:00 -14°C° 0 mm 2 mps 569 mmHg 77%
    22:00 -14°C° 0 mm 2 mps 569 mmHg 73%
    23:00 -14°C° 0 mm 2 mps 569 mmHg 71%

    Tomorrow, 19 November, Sunday

    Time Temperature Precipitation Wind Pressure Humidity
    00:00 -14°C° 0 mm 2 mps 569 mmHg 70%
    01:00 -14°C° 0 mm 2 mps 569 mmHg 68%
    02:00 -13°C° 0 mm 2 mps 569 mmHg 66%
    03:00 -12°C° 0 mm 2 mps 568 mmHg 65%
    04:00 -12°C° 0 mm 2 mps 568 mmHg 63%
    05:00 -10°C° 0.6 mm 2 mps 568 mmHg 71%
    06:00 -10°C° 0.6 mm 2 mps 568 mmHg 79%
    07:00 -10°C° 0.6 mm 2 mps 568 mmHg 87%
    08:00 -9°C° 1.1 mm 2 mps 569 mmHg 89%
    09:00 -8°C° 1.1 mm 2 mps 569 mmHg 91%
    10:00 -8°C° 1.1 mm 2 mps 570 mmHg 92%
    11:00 -8°C° 0.3 mm 3 mps 570 mmHg 90%
    12:00 -8°C° 0.3 mm 3 mps 570 mmHg 87%
    13:00 -8°C° 0.3 mm 3 mps 570 mmHg 85%
    14:00 -8°C° 0.3 mm 3 mps 570 mmHg 86%
    15:00 -9°C° 0.3 mm 3 mps 570 mmHg 88%
    16:00 -9°C° 0.3 mm 3 mps 569 mmHg 90%
    17:00 -10°C° 0.3 mm 3 mps 570 mmHg 91%
    18:00 -10°C° 0.3 mm 3 mps 570 mmHg 92%
    19:00 -12°C° 0.3 mm 3 mps 570 mmHg 93%
    20:00 -10°C° 0.2 mm 2 mps 570 mmHg 93%
    21:00 -10°C° 0.2 mm 2 mps 570 mmHg 93%
    22:00 -12°C° 0.2 mm 2 mps 571 mmHg 93%
    23:00 -12°C° 0 mm 2 mps 570 mmHg 93%

    Day after tomorrow, 20 November, Monday

    Time Temperature Precipitation Wind Pressure Humidity
    00:00 -13°C° 0 mm 2 mps 570 mmHg 93%
    01:00 -14°C° 0 mm 2 mps 570 mmHg 93%
    02:00 -14°C° 0 mm 2 mps 570 mmHg 91%
    03:00 -15°C° 0 mm 2 mps 569 mmHg 88%
    04:00 -15°C° 0 mm 2 mps 569 mmHg 86%
    05:00 -15°C° 0 mm 2 mps 569 mmHg 81%
    06:00 -15°C° 0 mm 2 mps 570 mmHg 77%
    07:00 -14°C° 0 mm 2 mps 570 mmHg 72%
    08:00 -12°C° 0 mm 2 mps 571 mmHg 70%
    09:00 -9°C° 0 mm 2 mps 572 mmHg 69%
    10:00 -7°C° 0 mm 2 mps 573 mmHg 67%
    11:00 -6°C° 0 mm 2 mps 573 mmHg 67%
    12:00 -5°C° 0 mm 2 mps 573 mmHg 67%
    13:00 -4°C° 0 mm 2 mps 574 mmHg 68%
    14:00 -5°C° 0.1 mm 2 mps 573 mmHg 71%
    15:00 -6°C° 0.1 mm 2 mps 573 mmHg 75%
    16:00 -6°C° 0.1 mm 2 mps 572 mmHg 79%
    17:00 -7°C° 0 mm 2 mps 572 mmHg 80%
    18:00 -8°C° 0 mm 2 mps 571 mmHg 80%
    19:00 -8°C° 0 mm 2 mps 571 mmHg 81%
    20:00 -9°C° 0 mm 2 mps 571 mmHg 81%
    21:00 -9°C° 0 mm 2 mps 571 mmHg 81%
    22:00 -9°C° 0 mm 2 mps 571 mmHg 81%
    23:00 -9°C° 0 mm 2 mps 571 mmHg 80%

    21 November, Tuesday

    Time Temperature Precipitation Wind Pressure Humidity
    00:00 -9°C° 0 mm 2 mps 571 mmHg 80%
    01:00 -9°C° 0 mm 2 mps 571 mmHg 79%
    02:00 -8°C° 0.2 mm 2 mps 571 mmHg 80%
    03:00 -8°C° 0.2 mm 2 mps 571 mmHg 82%
    04:00 -7°C° 0.2 mm 2 mps 572 mmHg 83%
    05:00 -8°C° 0.1 mm 2 mps 571 mmHg 85%
    06:00 -8°C° 0.1 mm 2 mps 571 mmHg 86%
    07:00 -8°C° 0.1 mm 2 mps 571 mmHg 88%
    08:00 -7°C° 0 mm 2 mps 572 mmHg 87%
    09:00 -5°C° 0 mm 2 mps 573 mmHg 86%
    10:00 -4°C° 0 mm 2 mps 573 mmHg 85%
    11:00 -3°C° 0 mm 2 mps 574 mmHg 87%
    12:00 -2°C° 0 mm 2 mps 574 mmHg 89%
    13:00 0°C° 0 mm 1 mps 574 mmHg 91%
    14:00 0°C° 0 mm 1 mps 574 mmHg 89%
    15:00 -1°C° 0 mm 1 mps 573 mmHg 88%
    16:00 -2°C° 0 mm 1 mps 573 mmHg 86%
    17:00 -3°C° 0 mm 1 mps 573 mmHg 85%
    18:00 -4°C° 0 mm 1 mps 572 mmHg 83%
    19:00 -6°C° 0 mm 2 mps 572 mmHg 82%
    20:00 -7°C° 0 mm 2 mps 572 mmHg 80%
    21:00 -7°C° 0 mm 2 mps 572 mmHg 79%
    22:00 -7°C° 0 mm 2 mps 572 mmHg 77%
    23:00 -7°C° 0 mm 2 mps 572 mmHg 76%

    22 November, Wednesday

    Time Temperature Precipitation Wind Pressure Humidity
    00:00 -7°C° 0 mm 2 mps 572 mmHg 74%
    01:00 -7°C° 0 mm 2 mps 572 mmHg 72%
    02:00 -7°C° 0 mm 2 mps 572 mmHg 71%
    03:00 -7°C° 0 mm 2 mps 572 mmHg 70%
    04:00 -7°C° 0 mm 2 mps 572 mmHg 69%
    05:00 -7°C° 0 mm 2 mps 572 mmHg 68%
    06:00 -7°C° 0 mm 2 mps 572 mmHg 67%
    07:00 -7°C° 0 mm 2 mps 572 mmHg 66%
    08:00 -5°C° 0 mm 2 mps 573 mmHg 68%
    09:00 -4°C° 0 mm 2 mps 574 mmHg 69%
    10:00 -2°C° 0 mm 2 mps 574 mmHg 71%
    11:00 -1°C° 0 mm 2 mps 575 mmHg 76%
    12:00 -1°C° 0 mm 2 mps 575 mmHg 80%
    13:00 +1°C° 0 mm 2 mps 575 mmHg 85%
    14:00 -1°C° 0 mm 2 mps 574 mmHg 83%
    15:00 -2°C° 0 mm 2 mps 574 mmHg 81%
    16:00 -3°C° 0 mm 2 mps 573 mmHg 79%
    17:00 -4°C° 0 mm 2 mps 573 mmHg 78%
    18:00 -5°C° 0 mm 2 mps 572 mmHg 77%
    19:00 -7°C° 0 mm 3 mps 572 mmHg 76%
    20:00 -7°C° 0 mm 3 mps 572 mmHg 75%
    21:00 -8°C° 0 mm 3 mps 572 mmHg 74%
    22:00 -8°C° 0 mm 3 mps 572 mmHg 72%
    23:00 -8°C° 0 mm 3 mps 572 mmHg 72%

    23 November, Thursday

    Time Temperature Precipitation Wind Pressure Humidity
    00:00 -8°C° 0 mm 3 mps 572 mmHg 71%
    01:00 -8°C° 0 mm 3 mps 571 mmHg 70%
    02:00 -8°C° 0 mm 3 mps 571 mmHg 71%
    03:00 -8°C° 0 mm 3 mps 571 mmHg 71%
    04:00 -8°C° 0 mm 3 mps 571 mmHg 71%
    05:00 -8°C° 0 mm 3 mps 571 mmHg 73%
    06:00 -9°C° 0 mm 3 mps 571 mmHg 74%
    07:00 -9°C° 0 mm 3 mps 571 mmHg 75%
    08:00 -7°C° 0 mm 3 mps 572 mmHg 76%
    09:00 -6°C° 0 mm 3 mps 573 mmHg 78%
    10:00 -4°C° 0 mm 3 mps 574 mmHg 79%
    11:00 -2°C° 0 mm 3 mps 574 mmHg 81%
    12:00 -2°C° 0 mm 3 mps 574 mmHg 83%
    13:00 -1°C° 0 mm 3 mps 574 mmHg 85%
    14:00 -2°C° 0 mm 3 mps 574 mmHg 85%
    15:00 -4°C° 0 mm 3 mps 573 mmHg 86%
    16:00 -5°C° 0 mm 3 mps 573 mmHg 87%
    17:00 -5°C° 0 mm 3 mps 573 mmHg 86%
    18:00 -6°C° 0 mm 3 mps 573 mmHg 86%
    19:00 -7°C° 0 mm 3 mps 573 mmHg 86%
    20:00 -7°C° 0 mm 3 mps 573 mmHg 84%
    21:00 -6°C° 0 mm 2 mps 573 mmHg 82%
    22:00 -7°C° 0 mm 2 mps 573 mmHg 80%
    23:00 -7°C° 0 mm 2 mps 573 mmHg 79%
    Show more